Flag for U.S.A. Weather past 2 weeks in Orange, California, U.S.A.

Now
72 °F

Passing clouds.


Feels Like: 75 °F
Forecast: 64 / 81 °F
Wind: 6 mph from South

Location: John Wayne Airport-Orange County Airport

Current Time: Aug 19, 2014 at 10:01:08 PM

Latest Report: Aug 19, 2014 at 8:53 PM


Visibility: 10 mi

Pressure: 29.87 "Hg

Humidity: 66%

Dew point: 60 °F

Location of OrangeLocation

Historic Weather in Orange — Graph

°F

Orange temperature yesterday

Maximum temperature yesterday: 83 °F (at 11:53 AM)
Minimum temperature yesterday: 69 °F (at 3:53 AM)
Average temperature yesterday: 74 °F

Past Weeks' High & Low Weather Summary

 TemperatureHumidityPressure
High89 °F (Aug 15, 2:53 PM)82% (Aug 15, 5:53 AM)30.06 "Hg (Aug 15, 5:53 AM)
Low67 °F (Aug 5, 5:53 AM)29% (Aug 15, 3:53 PM)29.79 "Hg (Aug 18, 4:53 PM)
Average74 °F64%29.94 "Hg
* Reported Aug 4 8:53 PM — Aug 19 8:53 PM, Orange, Weather by CustomWeather, © 2014

Note: Actual official high and low records may vary slightly from our data, if they occured in-between our weather recording intervals... More about our weather records

Advertising

Orange weather history for previous 24 hours

 ConditionsComfort  
Time TempWeatherWind HumidityBarometerVisibility
8:53 PM
Aug 19
72 °FPassing clouds.6 mph66%29.87 "Hg10 mi
7:53 PM72 °FBroken clouds.7 mph66%29.85 "Hg10 mi
6:53 PM73 °FBroken clouds.13 mph64%29.84 "Hg10 mi
5:53 PM75 °FBroken clouds.9 mph60%29.84 "Hg10 mi
4:53 PM76 °FPartly sunny.12 mph60%29.84 "Hg10 mi
3:53 PM76 °FBroken clouds.14 mph62%29.85 "Hg10 mi
2:53 PM78 °FScattered clouds.12 mph58%29.85 "Hg10 mi
1:53 PM79 °FScattered clouds.14 mph56%29.87 "Hg10 mi
12:53 PM80 °FScattered clouds.14 mph52%29.88 "Hg10 mi
11:53 AM79 °FScattered clouds.12 mph52%29.90 "Hg10 mi
10:53 AM78 °FScattered clouds.8 mph52%29.90 "Hg10 mi
9:53 AM76 °FPartly sunny.6 mph54%29.89 "Hg10 mi
8:53 AM74 °FPartly sunny.6 mph60%29.89 "Hg10 mi
7:53 AM73 °FPartly sunny.6 mph62%29.88 "Hg9 mi
6:53 AM73 °FOvercast.6 mph62%29.87 "Hg10 mi
5:53 AM72 °FOvercast.7 mph64%29.86 "Hg10 mi
4:53 AM72 °FOvercast.6 mph64%29.87 "Hg10 mi
3:53 AM72 °FOvercast.8 mph68%29.86 "Hg10 mi
2:53 AM72 °FOvercast.7 mph71%29.86 "Hg10 mi
1:53 AM73 °FOvercast.7 mph66%29.86 "Hg10 mi
12:53 AM73 °FOvercast.8 mph66%29.86 "Hg10 mi
11:53 PM
Aug 18
72 °FOvercast.8 mph71%29.86 "Hg10 mi
11:00 PM72 °FPassing clouds.8 mph73%29.87 "Hg10 mi
Weather by CustomWeather, © 2014

See weather overviewHow to use our weather pages